Location: Napier
(39.4830°S, 176.9170°E)
Time: 02:08:41
(UTC+12:00)

Iridium 2 - Pass Details

Date: 15 August 2020
Orbit: 503 x 516 km, 85.5° (Epoch: 19 September)

Event Time Altitude Azimuth Distance (km) Brightness Sun altitude
Rises 18:47:58 0° 19° (NNE) 2,599 7.1 -14.7°
Reaches altitude 10° 18:50:13 10° 29° (NNE) 1,725 6.1 -15.2°
Enters shadow 18:53:32 32° 91° (E) 910 4.3 -15.8°
